Regional Weather Roundup
Issued by NWS

Home | Current Version | Previous Version | Graphics & Text | Print | Product List | Glossary On
Versions: 1 2 3 4 5 6 7 8 9 10 11 12 13 14 15 16 17 18 19 20 21 22 23 24 25 26 27 28 29 30 31 32 33 34 35 36 37 38 39 40 41 42 43 44 45 46 47 48 49 50
000
ASUS45 KBOI 030310
RWRID

IDAHO REGIONAL WEATHER ROUNDUP
NATIONAL WEATHER SERVICE BOISE ID
900 PM MDT SUN AUG 02 2015

NOTE: "FAIR" INDICATES FEW OR NO CLOUDS BELOW 12000 FEET
WITH NO SIGNIFICANT WEATHER AND/OR OBSTRUCTIONS TO VISIBILITY

IDZ012-014-030400-
SOUTHWEST IDAHO


CITY           SKY/WX    TMP DP  RH WIND       PRES   REMARKS
BOISE          CLOUDY    93  46  19 N3        29.77S
CALDWELL       CLOUDY    88  50  27 CALM      29.75S
MOUNTAIN HOME  CLOUDY    95  36  12 N8        29.78S HX  90
$$

IDZ016-017-030400-
SOUTHCENTRAL IDAHO


CITY           SKY/WX    TMP DP  RH WIND       PRES   REMARKS
BURLEY         PTCLDY    73  54  51 CALM      29.87F
JEROME         MOCLDY    78  51  38 NE3       29.89R
TWIN FALLS     CLOUDY    88  38  17 S7        29.87S
$$

IDZ019>023-030400-
SOUTHEAST IDAHO


CITY           SKY/WX    TMP DP  RH WIND       PRES   REMARKS
IDAHO FALLS    MOCLDY    76  47  35 CALM      29.95S
POCATELLO      CLEAR     81  45  28 CALM      29.92S
REXBURG        MOCLDY    76  48  37 CALM      29.96S
$$

IDZ006-010-011-018-031-032-030400-
CENTRAL IDAHO MOUNTAINS


CITY           SKY/WX    TMP DP  RH WIND       PRES   REMARKS
MCCALL         MOCLDY    83  28  13 N7        29.97R
HAILEY         PTCLDY    72  48  43 SW5       30.01R
STANLEY          N/A     72  39  30 S3        30.11S
SALMON         PTCLDY    82  46  28 S3        29.85R
CHALLIS        MOCLDY    79  42  26 VRB3      29.96R
$$

IDZ002-004-006-007-026-030400-
NORTHERN IDAHO


CITY           SKY/WX    TMP DP  RH WIND       PRES   REMARKS
LEWISTON       PTCLDY    94  28   9 NW6       29.75R
LOWELL           N/A     76  52  43 N3        29.76R
COEUR D`ALENE  CLEAR     88  34  14 NE6       29.81S
MULLAN PASS    CLEAR     74  21  13 NW6       30.12R
$$


USA.gov is the U.S. government's official web portal to all federal, state and local government web resources and services.